| time (UTC) | temp C | wind direction | speed KPH | gust KPH | rain 1hr cm | rain 24hr cm | rain mn cm | humidity % | barometer mb |
| 20260505112301 | 18 | 76 | 0.0 | 6.4 | 0.00 | 0.89 | 0.18 | 64 | 1008.4 |
| 20260505111304 | 18 | 74 | 0.0 | 4.8 | 0.00 | 0.89 | 0.18 | 72 | 1008.3 |
| 20260505100302 | 16 | 319 | 0.0 | 6.4 | 0.00 | 0.89 | 0.18 | 84 | 1009.1 |
| 20260505094305 | 16 | 319 | 0.0 | 4.8 | 0.03 | 0.89 | 0.18 | 85 | 1009.1 |
| 20260505091305 | 16 | 319 | 0.0 | 4.8 | 0.03 | 0.89 | 0.18 | 90 | 1009.2 |
| 20260505090307 | 15 | 319 | 1.6 | 6.4 | 0.03 | 0.89 | 0.18 | 91 | 1009.3 |
| 20260505085307 | 15 | 45 | 0.0 | 4.8 | 0.00 | 0.86 | 0.15 | 91 | 1009.3 |
| 20260505084304 | 15 | 47 | 0.0 | 0.0 | 0.00 | 0.86 | 0.15 | 92 | 1009.4 |
| 20260505083304 | 15 | 47 | 0.0 | 0.0 | 0.00 | 0.86 | 0.15 | 93 | 1009.4 |
| 20260505082306 | 14 | 47 | 0.0 | 0.0 | 0.00 | 0.86 | 0.15 | 93 | 1009.5 |
| 20260505081302 | 14 | 47 | 0.0 | 6.4 | 0.00 | 0.86 | 0.15 | 93 | 1009.6 |
| 20260505080303 | 14 | 44 | 1.6 | 4.8 | 0.00 | 0.86 | 0.15 | 92 | 1009.5 |
| 20260505074304 | 13 | 35 | 0.0 | 0.0 | 0.00 | 0.86 | 0.15 | 90 | 1009.7 |
| 20260505073302 | 13 | 35 | 0.0 | 0.0 | 0.00 | 0.86 | 0.15 | 90 | 1009.7 |
| 20260505072305 | 12 | 35 | 0.0 | 1.6 | 0.00 | 0.86 | 0.15 | 89 | 1009.7 |
| 20260505071302 | 12 | 34 | 0.0 | 3.2 | 0.00 | 0.86 | 0.15 | 89 | 1009.8 |
| 20260505070303 | 12 | 71 | 0.0 | 0.0 | 0.00 | 0.86 | 0.15 | 89 | 1009.8 |
| 20260505064304 | 12 | 71 | 0.0 | 0.0 | 0.00 | 0.86 | 0.15 | 89 | 1009.8 |
| 20260505063303 | 12 | 71 | 0.0 | 0.0 | 0.00 | 0.86 | 0.15 | 89 | 1009.8 |
| 20260505062301 | 11 | 71 | 0.0 | 0.0 | 0.00 | 0.86 | 0.15 | 89 | 1009.8 |
| 20260505061303 | 11 | 71 | 0.0 | 0.0 | 0.00 | 0.86 | 0.15 | 89 | 1009.9 |
| 20260505060316 | 11 | 71 | 0.0 | 0.0 | 0.00 | 0.86 | 0.15 | 89 | 1010.0 |
| 20260505055303 | 11 | 71 | 0.0 | 0.0 | 0.00 | 0.86 | 0.15 | 89 | 1009.9 |
| 20260505054300 | 11 | 71 | 0.0 | 0.0 | 0.00 | 0.86 | 0.15 | 90 | 1009.9 |
| 20260505053259 | 11 | 71 | 0.0 | 0.0 | 0.00 | 0.86 | 0.15 | 89 | 1009.9 |
| 20260505052301 | 11 | 71 | 0.0 | 0.0 | 0.00 | 0.86 | 0.15 | 90 | 1009.9 |
| 20260505051308 | 11 | 71 | 0.0 | 0.0 | 0.00 | 0.86 | 0.15 | 90 | 1009.9 |
| 20260505040301 | 11 | 71 | 0.0 | 0.0 | 0.00 | 0.86 | 0.15 | 90 | 1010.2 |
| 20260505035304 | 11 | 71 | 0.0 | 0.0 | 0.00 | 0.86 | 0.15 | 90 | 1010.2 |
| 20260505034258 | 11 | 71 | 0.0 | 0.0 | 0.00 | 0.86 | 0.15 | 90 | 1010.3 |
| 20260505033259 | 11 | 71 | 0.0 | 0.0 | 0.00 | 0.86 | 0.15 | 90 | 1010.4 |
| 20260505031257 | 11 | 71 | 0.0 | 0.0 | 0.00 | 0.86 | 0.15 | 90 | 1010.6 |
| 20260505030256 | 11 | 71 | 0.0 | 0.0 | 0.00 | 0.86 | 0.15 | 90 | 1010.6 |
| 20260505025254 | 11 | 71 | 0.0 | 0.0 | 0.00 | 0.86 | 0.15 | 90 | 1010.8 |
| 20260505023300 | 11 | 71 | 0.0 | 0.0 | 0.00 | 0.86 | 0.15 | 91 | 1010.9 |
| 20260505015256 | 11 | 71 | 0.0 | 0.0 | 0.00 | 0.86 | 0.15 | 91 | 1011.1 |
| 20260505014256 | 11 | 71 | 0.0 | 0.0 | 0.00 | 0.86 | 0.15 | 91 | 1011.2 |
| 20260505013254 | 11 | 71 | 0.0 | 0.0 | 0.00 | 0.86 | 0.15 | 91 | 1011.3 |
| 20260505012255 | 11 | 71 | 0.0 | 0.0 | 0.00 | 0.86 | 0.15 | 91 | 1011.3 |
| 20260505010255 | 11 | 71 | 0.0 | 0.0 | 0.00 | 0.86 | 0.15 | 91 | 1011.4 |
| 20260505005256 | 11 | 71 | 0.0 | 0.0 | 0.00 | 0.86 | 0.15 | 91 | 1011.5 |
| 20260505003253 | 12 | 71 | 0.0 | 0.0 | 0.00 | 0.86 | 0.15 | 91 | 1011.8 |
| 20260505000254 | 12 | 71 | 0.0 | 0.0 | 0.00 | 0.86 | 0.15 | 91 | 1012.2 |
| 20260504235253 | 12 | 71 | 0.0 | 3.2 | 0.03 | 0.84 | 0.15 | 91 | 1012.3 |
| 20260504233253 | 12 | 71 | 0.0 | 0.0 | 0.05 | 0.84 | 0.15 | 91 | 1012.5 |
| 20260504232252 | 12 | 71 | 1.6 | 4.8 | 0.05 | 0.84 | 0.15 | 91 | 1012.5 |
| 20260504231250 | 12 | 71 | 3.2 | 6.4 | 0.08 | 0.84 | 0.15 | 91 | 1012.8 |
| 20260504230254 | 12 | 74 | 3.2 | 6.4 | 0.15 | 0.84 | 0.15 | 91 | 1012.8 |
| 20260504225251 | 12 | 74 | 0.0 | 8.0 | 0.20 | 0.71 | 0.15 | 91 | 1012.9 |
| 20260504224252 | 12 | 78 | 3.2 | 6.4 | 0.18 | 0.71 | 0.13 | 92 | 1013.1 |
| 20260504223251 | 12 | 159 | 1.6 | 6.4 | 0.18 | 0.71 | 0.13 | 92 | 1013.3 |
| 20260504221249 | 12 | 209 | 0.0 | 0.0 | 0.15 | 0.71 | 0.08 | 92 | 1013.5 |
| 20260504215249 | 12 | 209 | 0.0 | 0.0 | 0.00 | 0.64 | 0.64 | 92 | 1013.4 |
| 20260504214249 | 12 | 209 | 0.0 | 0.0 | 0.00 | 0.64 | 0.64 | 92 | 1013.3 |
| 20260504212249 | 12 | 209 | 0.0 | 0.0 | 0.03 | 0.64 | 0.64 | 92 | 1013.4 |
| 20260504211252 | 12 | 209 | 0.0 | 0.0 | 0.03 | 0.64 | 0.64 | 92 | 1013.5 |
| 20260504205251 | 12 | 209 | 0.0 | 0.0 | 0.03 | 0.61 | 0.64 | 92 | 1013.6 |
| 20260504204248 | 13 | 209 | 0.0 | 0.0 | 0.03 | 0.61 | 0.64 | 92 | 1013.5 |
| 20260504203250 | 13 | 209 | 0.0 | 0.0 | 0.03 | 0.61 | 0.64 | 93 | 1013.6 |
| 20260504202251 | 13 | 209 | 0.0 | 0.0 | 0.00 | 0.61 | 0.61 | 93 | 1013.5 |
| 20260504201250 | 13 | 209 | 0.0 | 0.0 | 0.00 | 0.61 | 0.61 | 93 | 1013.5 |
| 20260504200251 | 13 | 209 | 0.0 | 0.0 | 0.00 | 0.61 | 0.61 | 93 | 1013.2 |
| 20260504195246 | 13 | 209 | 0.0 | 0.0 | 0.00 | 0.61 | 0.61 | 93 | 1013.1 |
| 20260504193249 | 13 | 209 | 0.0 | 3.2 | 0.00 | 0.61 | 0.61 | 93 | 1013.0 |
| 20260504192248 | 13 | 210 | 1.6 | 6.4 | 0.00 | 0.61 | 0.61 | 93 | 1012.9 |
| 20260504191248 | 13 | 248 | 0.0 | 0.0 | 0.00 | 0.61 | 0.61 | 93 | 1012.8 |
| 20260504190249 | 13 | 248 | 0.0 | 0.0 | 0.00 | 0.61 | 0.61 | 93 | 1012.8 |
| 20260504185247 | 13 | 248 | 1.6 | 6.4 | 0.00 | 0.61 | 0.61 | 93 | 1012.9 |
| 20260504184247 | 13 | 248 | 1.6 | 4.8 | 0.00 | 0.61 | 0.61 | 93 | 1012.9 |
| 20260504183247 | 13 | 249 | 0.0 | 0.0 | 0.00 | 0.61 | 0.61 | 93 | 1012.8 |
| 20260504182246 | 13 | 249 | 0.0 | 1.6 | 0.00 | 0.61 | 0.61 | 92 | 1012.9 |
| 20260504181247 | 13 | 249 | 0.0 | 0.0 | 0.00 | 0.61 | 0.61 | 92 | 1012.7 |
| 20260504180246 | 13 | 249 | 0.0 | 1.6 | 0.00 | 0.61 | 0.61 | 92 | 1012.8 |
| 20260504175244 | 13 | 251 | 0.0 | 6.4 | 0.00 | 0.61 | 0.61 | 92 | 1012.8 |
| 20260504174244 | 13 | 254 | 1.6 | 4.8 | 0.00 | 0.61 | 0.61 | 92 | 1012.8 |
| 20260504173245 | 13 | 254 | 1.6 | 9.7 | 0.00 | 0.61 | 0.61 | 92 | 1013.0 |
| 20260504172245 | 14 | 250 | 1.6 | 11.3 | 0.00 | 0.61 | 0.61 | 92 | 1013.0 |
| 20260504171244 | 14 | 315 | 4.8 | 14.5 | 0.00 | 0.61 | 0.61 | 92 | 1013.2 |
| 20260504170243 | 14 | 290 | 4.8 | 12.9 | 0.00 | 0.61 | 0.61 | 92 | 1013.1 |
| 20260504160242 | 14 | 283 | 0.0 | 6.4 | 0.05 | 0.61 | 0.61 | 92 | 1013.5 |
| 20260504141239 | 21 | 263 | 3.2 | 14.5 | 0.00 | 0.00 | 0.00 | 61 | 1013.1 |
| 20260504140242 | 21 | 144 | 1.6 | 16.1 | 0.00 | 0.00 | 0.00 | 58 | 1012.3 |
| 20260504130248 | 22 | 165 | 3.2 | 11.3 | 0.00 | 0.00 | 0.00 | 54 | 1012.7 |
| 20260504120233 | 21 | 159 | 1.6 | 11.3 | 0.00 | 0.00 | 0.00 | 56 | 1013.1 |